Location: Unspecified
(49.2170°N, 0.0000°E)
Time: 15:09:46
(UTC+00:00)

Vanguard 1 - Pass Details

Date: 21 June 2021
Orbit: 651 x 3832 km, 34.2° (Epoch: 23 July)

Event Time Altitude Azimuth Distance (km) Brightness Sun altitude
Rises 22:25:43 0° 250° (WSW) 7,966 14.7 -14.2°
Reaches altitude 10° 22:31:32 10° 245° (WSW) 6,911 14.3 -14.6°
Maximum altitude 22:52:13 48° 181° (S) 3,697 12.5 -15.7°
Drops below altitude 10° 23:05:42 10° 113° (ESE) 4,676 13.2 -16.3°
Sets 23:08:46 0° 107° (ESE) 5,323 13.5 -16.4°
